• Join FlightAware (Why Join?)
  • Login
  • US Flag 
05:16AM EST


 

Airport Tracker/Info


-or-


 

Live Flight TrackerFlight Track Log ✈ UAL4536 ✈ 01-May-2013 ✈ KEWR - KCVG

Flight Track Log - Related Links

Times and Time Zones

All times are in EDT time to prevent confusion due to time zone crossing. See the UAL4536 flight status page for this flight to view local times or setup timezone preferences in your user account.

Time Position Orientation Groundspeed Altitude Reporting Facility
EDT Latitude Longitude Course Direction KTS MPH feet Rate Location/Type
08:41PM 40.6667 -74.1833 237° Southwest 166 191 2,200  Level New York TRACON
08:43PM 40.6333 -74.2500 237° Southwest 236 272 4,400 2,340 Climbing New York TRACON
08:44PM 40.6500 -74.3333 285° West 283 326 7,200 2,280 Climbing New York TRACON
08:45PM 40.6683 -74.5331 277° West 312 359 10,800 1,800 Climbing New York Center
08:46PM 40.6728 -74.6508 273° West 347 399 12,300 1,800 Climbing New York Center
08:47PM 40.6761 -74.7989 272° West 365 420 14,500 2,100 Climbing New York Center
08:48PM 40.6800 -74.9278 272° West 365 420 16,500 1,740 Climbing New York Center
08:49PM 40.6819 -75.0483 271° West 365 420 18,000 1,740 Climbing New York Center
08:50PM 40.6356 -75.1819 245° Southwest 355 409 20,100 2,040 Climbing New York Center
08:51PM 40.5808 -75.3014 239° Southwest 366 421 22,200 2,040 Climbing New York Center
08:52PM 40.5261 -75.4208 239° Southwest 379 436 24,200 1,740 Climbing New York Center
08:53PM 40.4736 -75.5400 240° Southwest 391 450 25,700 1,440 Climbing New York Center
08:54PM 40.4183 -75.6644 240° Southwest 391 450 27,200 1,380 Climbing New York Center
08:55PM 40.3592 -75.7883 238° Southwest 391 450 28,600 1,260 Climbing New York Center
08:56PM 40.3111 -75.8881 238° Southwest 402 463 29,800 1,320 Climbing New York Center
08:57PM 40.2422 -76.0300 238° Southwest 409 471 31,300 1,500 Climbing New York Center
08:58PM 40.1803 -76.1556 237° Southwest 414 476 32,800 1,500 Climbing New York Center
09:00PM 40.0861 -76.3725 240° Southwest 400 460 35,200 1,200 Climbing Washington Center
09:01PM 40.0269 -76.5017 239° Southwest 405 466 36,000 360 Climbing Washington Center
09:02PM 39.9656 -76.6256 237° Southwest 428 493 36,000  Level Washington Center
09:03PM 39.8933 -76.7758 238° Southwest 449 517 36,000  Level Washington Center
09:04PM 39.8272 -76.9125 238° Southwest 449 517 36,000  Level Washington Center
09:05PM 39.7653 -77.0464 239° Southwest 449 517 36,000  Level Washington Center
09:06PM 39.7033 -77.1800 239° Southwest 449 517 36,000  Level Washington Center
09:07PM 39.6389 -77.3133 238° Southwest 449 517 36,000  Level Washington Center
09:08PM 39.5764 -77.4467 239° Southwest 444 511 36,000  Level Washington Center
09:09PM 39.5139 -77.5794 239° Southwest 444 511 36,000  Level Washington Center
09:10PM 39.4533 -77.7067 238° Southwest 439 505 36,000  Level Washington Center
09:11PM 39.3928 -77.8339 238° Southwest 428 493 36,000  Level Washington Center
09:12PM 39.3381 -77.9692 242° Southwest 428 493 36,000  Level Washington Center
09:13PM 39.2831 -78.1067 243° Southwest 423 487 36,000  Level Washington Center
09:14PM 39.2281 -78.2442 243° Southwest 428 493 36,000  Level Washington Center
09:15PM 39.1914 -78.3928 252° West 433 498 36,000  Level Washington Center
09:16PM 39.1628 -78.5417 256° West 433 498 36,000  Level Washington Center
09:17PM 39.1319 -78.6875 255° West 433 498 36,000  Level Washington Center
09:18PM 39.1033 -78.8308 256° West 433 498 36,000  Level Washington Center
09:19PM 39.0722 -78.9764 255° West 433 498 36,000  Level Washington Center
09:20PM 39.0408 -79.1219 255° West 433 498 36,000  Level Washington Center
09:21PM 39.0094 -79.2675 255° West 433 498 36,000  Level Washington Center
09:22PM 38.9825 -79.3997 255° West 433 498 36,000  Level Washington Center
09:23PM 38.9506 -79.5422 254° West 427 491 36,000 -360 Level Washington Center
09:24PM 38.9161 -79.7058 255° West 433 498 35,300 -540 Descending Washington Center
09:25PM 38.8839 -79.8506 254° West 433 498 35,000 -120 Descending Washington Center
09:27PM 38.8303 -80.0708 253° West 413 475 35,000  Level Indianapolis Center
09:28PM 38.8150 -80.2428 264° West 404 465 35,000  Level Indianapolis Center
09:29PM 38.8119 -80.3842 268° West 399 459 35,000  Level Indianapolis Center
09:30PM 38.8083 -80.5256 268° West 397 457 35,000  Level Indianapolis Center
09:31PM 38.8022 -80.6672 267° West 398 458 35,000  Level Indianapolis Center
09:32PM 38.7828 -80.8092 260° West 405 466 35,000  Level Indianapolis Center
09:33PM 38.7608 -80.9500 259° West 403 464 35,000  Level Indianapolis Center
09:34PM 38.7397 -81.0922 259° West 405 466 35,000  Level Indianapolis Center
09:35PM 38.7189 -81.2333 259° West 403 464 35,000  Level Indianapolis Center
09:36PM 38.6975 -81.3753 259° West 405 466 35,000 -360 Level Indianapolis Center
09:37PM 38.6756 -81.5242 259° West 408 470 34,300 -1,020 Descending Indianapolis Center
09:38PM 38.6508 -81.6894 259° West 407 468 33,000 -1,140 Descending Indianapolis Center
09:39PM 38.6314 -81.8167 259° West 407 468 32,100 -960 Descending Indianapolis Center
09:40PM 38.6092 -81.9603 259° West 412 474 31,100 -1,080 Descending Indianapolis Center
09:41PM 38.5856 -82.1094 259° West 426 490 30,000 -1,080 Descending Indianapolis Center
09:42PM 38.5608 -82.2647 259° West 442 509 29,000 -1,020 Descending Indianapolis Center
09:43PM 38.5356 -82.4219 258° West 448 516 28,000 -1,140 Descending Indianapolis Center
09:44PM 38.5083 -82.5972 259° West 454 522 26,800 -1,140 Descending Indianapolis Center
09:45PM 38.4825 -82.7572 258° West 458 527 25,800 -1,020 Descending Indianapolis Center
09:46PM 38.4567 -82.9175 258° West 461 531 24,800 -900 Descending Indianapolis Center
09:47PM 38.4392 -83.1056 263° West 462 532 24,000 -1,140 Descending Indianapolis Center
09:48PM 38.4700 -83.2594 284° West 452 520 22,500 -2,460 Descending Indianapolis Center
09:49PM 38.5022 -83.4028 286° West 427 491 19,000 -3,240 Descending Indianapolis Center
09:50PM 38.5306 -83.5408 285° West 407 468 16,000 -2,520 Descending Indianapolis Center
09:51PM 38.5600 -83.6733 286° West 390 449 13,900 -2,280 Descending Indianapolis Center
09:52PM 38.5869 -83.7992 285° West 373 429 11,400 -1,920 Descending Indianapolis Center
09:53PM 38.6139 -83.9200 286° West 357 411 10,000 -780 Descending Indianapolis Center
09:54PM 38.6589 -84.0472 294° West 363 418 9,900 -840 Descending Indianapolis Center
09:55PM 38.6931 -84.1464 294° West 307 353 8,300 -1,620 Descending Indianapolis Center
09:56PM 38.7250 -84.2425 293° West 293 337 6,700 -1,560 Descending Indianapolis Center
09:57PM 38.7561 -84.3300 295° West 275 316 5,200 -900 Descending Indianapolis Center
09:58PM 38.7872 -84.4178 294° West 270 311 4,900 -180 Descending Indianapolis Center
09:59PM 38.8181 -84.5092 293° West 274 315 4,900  Level Indianapolis Center
10:00PM 38.8483 -84.5986 294° West 284 327 5,000 -420 Climbing Indianapolis Center
10:02PM 38.9000 -84.6667 314° West 203 234 4,000 -900 Descending Cincinnati TRACON